When you browse on this site, cookies collect data to enhance your experience and personalize the content and advertising you see.
Visit our Privacy Policy to learn more. By continuing to use the site, you agree to this use of cookies and data.
  • In Österreich
  • Länderverzeichnis
  • Für 7 Tage
  • Wassertemperatur
  • Wetterkarte
  • News
  • Widgets
  • user-avatar
    Anmelden

    Stündliche Wetter Goldene Küste

    Heute, 9 Dezember, Montag

    Zeit Temperatur Niederschläge Wind Luftdruck Luftfeuchtigkeit
    00:00 +22°C° 0.2 mm 3 m/S 761 mmHg 91%
    01:00 +22°C° 0.2 mm 3 m/S 760 mmHg 90%
    02:00 +22°C° 0 mm 3 m/S 760 mmHg 92%
    03:00 +21°C° 0 mm 4 m/S 760 mmHg 94%
    04:00 +20°C° 0 mm 2 m/S 761 mmHg 98%
    05:00 +22°C° 0.1 mm 3 m/S 761 mmHg 91%
    06:00 +25°C° 0.1 mm 3 m/S 761 mmHg 83%
    07:00 +26°C° 0.1 mm 4 m/S 761 mmHg 76%
    08:00 +28°C° 0.1 mm 4 m/S 761 mmHg 72%
    09:00 +29°C° 0.1 mm 4 m/S 761 mmHg 67%
    10:00 +30°C° 0 mm 4 m/S 761 mmHg 60%
    11:00 +30°C° 0 mm 5 m/S 761 mmHg 60%
    12:00 +32°C° 0 mm 5 m/S 761 mmHg 60%
    13:00 +32°C° 0 mm 5 m/S 760 mmHg 60%
    14:00 +30°C° 0 mm 5 m/S 760 mmHg 64%
    15:00 +29°C° 0 mm 5 m/S 760 mmHg 68%
    16:00 +28°C° 0 mm 4 m/S 759 mmHg 75%
    17:00 +27°C° 0.1 mm 4 m/S 760 mmHg 82%
    18:00 +26°C° 0.1 mm 4 m/S 760 mmHg 89%
    19:00 +25°C° 0.1 mm 4 m/S 760 mmHg 96%
    20:00 +24°C° 0.1 mm 3 m/S 760 mmHg 96%
    21:00 +24°C° 0.1 mm 3 m/S 760 mmHg 97%
    22:00 +24°C° 0.1 mm 3 m/S 760 mmHg 97%
    23:00 +24°C° 0.1 mm 2 m/S 760 mmHg 97%

    Morgen, 10 Dezember, Dienstag

    Zeit Temperatur Niederschläge Wind Luftdruck Luftfeuchtigkeit
    00:00 +24°C° 0.1 mm 2 m/S 760 mmHg 97%
    01:00 +24°C° 0.1 mm 1 m/S 759 mmHg 97%
    02:00 +24°C° 0 mm 1 m/S 759 mmHg 97%
    03:00 +23°C° 0 mm 1 m/S 759 mmHg 97%
    04:00 +23°C° 0 mm 1 m/S 759 mmHg 97%
    05:00 +24°C° 0 mm 1 m/S 759 mmHg 92%
    06:00 +25°C° 0 mm 1 m/S 759 mmHg 87%
    07:00 +27°C° 0 mm 2 m/S 759 mmHg 81%
    08:00 +28°C° 0 mm 2 m/S 759 mmHg 74%
    09:00 +29°C° 0 mm 2 m/S 759 mmHg 67%
    10:00 +30°C° 0 mm 3 m/S 759 mmHg 59%
    11:00 +33°C° 0 mm 3 m/S 758 mmHg 53%
    12:00 +35°C° 0 mm 4 m/S 757 mmHg 46%
    13:00 +37°C° 0 mm 4 m/S 757 mmHg 40%
    14:00 +35°C° 0 mm 5 m/S 756 mmHg 44%
    15:00 +34°C° 0 mm 5 m/S 756 mmHg 48%
    16:00 +33°C° 0 mm 5 m/S 755 mmHg 52%
    17:00 +30°C° 0 mm 5 m/S 756 mmHg 61%
    18:00 +28°C° 0 mm 4 m/S 756 mmHg 71%
    19:00 +26°C° 0 mm 4 m/S 756 mmHg 80%
    20:00 +26°C° 0 mm 4 m/S 757 mmHg 83%
    21:00 +25°C° 0 mm 4 m/S 757 mmHg 86%
    22:00 +25°C° 0 mm 4 m/S 757 mmHg 89%
    23:00 +25°C° 0 mm 4 m/S 757 mmHg 91%

    übermorgen, 11 Dezember, Mittwoch

    Zeit Temperatur Niederschläge Wind Luftdruck Luftfeuchtigkeit
    00:00 +25°C° 0 mm 4 m/S 756 mmHg 92%
    01:00 +24°C° 0 mm 3 m/S 756 mmHg 94%
    02:00 +24°C° 0 mm 3 m/S 756 mmHg 94%
    03:00 +22°C° 0 mm 3 m/S 755 mmHg 95%
    04:00 +22°C° 0 mm 3 m/S 755 mmHg 96%
    05:00 +24°C° 0 mm 3 m/S 756 mmHg 87%
    06:00 +26°C° 0 mm 3 m/S 756 mmHg 79%
    07:00 +28°C° 0 mm 3 m/S 757 mmHg 70%
    08:00 +30°C° 0 mm 3 m/S 756 mmHg 62%
    09:00 +33°C° 0 mm 3 m/S 756 mmHg 54%
    10:00 +35°C° 0 mm 4 m/S 756 mmHg 46%
    11:00 +35°C° 0 mm 4 m/S 756 mmHg 46%
    12:00 +35°C° 0 mm 5 m/S 755 mmHg 45%
    13:00 +36°C° 0 mm 6 m/S 754 mmHg 45%
    14:00 +33°C° 0.2 mm 5 m/S 754 mmHg 56%
    15:00 +30°C° 0.2 mm 4 m/S 754 mmHg 66%
    16:00 +28°C° 0.2 mm 3 m/S 754 mmHg 77%
    17:00 +26°C° 0 mm 3 m/S 755 mmHg 82%
    18:00 +25°C° 0 mm 3 m/S 756 mmHg 87%
    19:00 +24°C° 0 mm 2 m/S 756 mmHg 91%
    20:00 +24°C° 0.1 mm 3 m/S 756 mmHg 92%
    21:00 +24°C° 0.1 mm 3 m/S 756 mmHg 93%
    22:00 +24°C° 0.1 mm 3 m/S 756 mmHg 93%
    23:00 +24°C° 0 mm 3 m/S 756 mmHg 94%

    12 Dezember, Donnerstag

    Zeit Temperatur Niederschläge Wind Luftdruck Luftfeuchtigkeit
    00:00 +22°C° 0 mm 3 m/S 755 mmHg 95%
    01:00 +23°C° 0 mm 2 m/S 754 mmHg 95%
    02:00 +22°C° 0 mm 3 m/S 754 mmHg 95%
    03:00 +22°C° 0 mm 3 m/S 754 mmHg 94%
    04:00 +22°C° 0 mm 3 m/S 754 mmHg 94%
    05:00 +24°C° 0 mm 3 m/S 754 mmHg 90%
    06:00 +25°C° 0 mm 3 m/S 755 mmHg 86%
    07:00 +26°C° 0 mm 3 m/S 755 mmHg 82%
    08:00 +28°C° 0 mm 3 m/S 755 mmHg 70%
    09:00 +30°C° 0 mm 4 m/S 755 mmHg 59%
    10:00 +34°C° 0 mm 4 m/S 755 mmHg 48%
    11:00 +34°C° 0 mm 5 m/S 755 mmHg 47%
    12:00 +34°C° 0 mm 5 m/S 754 mmHg 45%
    13:00 +35°C° 0 mm 6 m/S 753 mmHg 44%
    14:00 +33°C° 0.4 mm 5 m/S 753 mmHg 53%
    15:00 +30°C° 0.4 mm 5 m/S 752 mmHg 62%
    16:00 +28°C° 0.4 mm 4 m/S 752 mmHg 71%
    17:00 +26°C° 0.7 mm 4 m/S 753 mmHg 78%
    18:00 +23°C° 0.7 mm 4 m/S 754 mmHg 84%
    19:00 +22°C° 0.7 mm 4 m/S 755 mmHg 90%
    20:00 +22°C° 0 mm 4 m/S 755 mmHg 91%
    21:00 +21°C° 0 mm 4 m/S 754 mmHg 92%
    22:00 +21°C° 0 mm 3 m/S 754 mmHg 93%
    23:00 +21°C° 0 mm 3 m/S 754 mmHg 94%

    13 Dezember, Freitag

    Zeit Temperatur Niederschläge Wind Luftdruck Luftfeuchtigkeit
    00:00 +20°C° 0 mm 3 m/S 754 mmHg 95%
    01:00 +20°C° 0 mm 3 m/S 754 mmHg 95%
    02:00 +21°C° 0 mm 2 m/S 754 mmHg 95%
    03:00 +21°C° 0 mm 2 m/S 754 mmHg 94%
    04:00 +21°C° 0 mm 2 m/S 754 mmHg 93%
    05:00 +24°C° 0 mm 2 m/S 754 mmHg 86%
    06:00 +25°C° 0 mm 2 m/S 755 mmHg 79%
    07:00 +26°C° 0 mm 2 m/S 755 mmHg 73%
    08:00 +28°C° 0 mm 3 m/S 755 mmHg 64%
    09:00 +30°C° 0 mm 3 m/S 755 mmHg 56%
    10:00 +33°C° 0 mm 4 m/S 755 mmHg 47%
    11:00 +34°C° 0 mm 4 m/S 754 mmHg 44%
    12:00 +35°C° 0 mm 4 m/S 753 mmHg 40%
    13:00 +36°C° 0 mm 5 m/S 753 mmHg 36%
    14:00 +34°C° 0.1 mm 5 m/S 752 mmHg 46%
    15:00 +32°C° 0.1 mm 5 m/S 751 mmHg 56%
    16:00 +28°C° 0.1 mm 6 m/S 751 mmHg 65%
    17:00 +27°C° 4.5 mm 5 m/S 752 mmHg 75%
    18:00 +25°C° 4.5 mm 5 m/S 752 mmHg 85%
    19:00 +22°C° 4.5 mm 4 m/S 753 mmHg 94%
    20:00 +22°C° 0 mm 4 m/S 754 mmHg 95%
    21:00 +22°C° 0 mm 4 m/S 754 mmHg 95%
    22:00 +22°C° 0 mm 4 m/S 755 mmHg 96%
    23:00 +22°C° 0 mm 3 m/S 754 mmHg 95%

    14 Dezember, Samstag

    Zeit Temperatur Niederschläge Wind Luftdruck Luftfeuchtigkeit
    00:00 +22°C° 0 mm 3 m/S 754 mmHg 94%
    01:00 +23°C° 0 mm 2 m/S 754 mmHg 94%
    02:00 +21°C° 0 mm 2 m/S 753 mmHg 95%
    03:00 +21°C° 0 mm 2 m/S 753 mmHg 95%
    04:00 +20°C° 0 mm 2 m/S 753 mmHg 96%
    05:00 +23°C° 0 mm 2 m/S 753 mmHg 91%
    06:00 +24°C° 0 mm 1 m/S 754 mmHg 85%
    07:00 +26°C° 0 mm 1 m/S 754 mmHg 80%
    08:00 +28°C° 0 mm 1 m/S 754 mmHg 70%
    09:00 +30°C° 0 mm 2 m/S 754 mmHg 60%
    10:00 +32°C° 0 mm 2 m/S 754 mmHg 51%
    11:00 +33°C° 0.1 mm 3 m/S 753 mmHg 51%
    12:00 +33°C° 0.1 mm 4 m/S 752 mmHg 51%
    13:00 +34°C° 0.1 mm 4 m/S 752 mmHg 52%
    14:00 +32°C° 0.5 mm 5 m/S 751 mmHg 61%
    15:00 +29°C° 0.5 mm 5 m/S 751 mmHg 70%
    16:00 +28°C° 0.5 mm 6 m/S 750 mmHg 79%
    17:00 +26°C° 0.3 mm 5 m/S 751 mmHg 82%
    18:00 +25°C° 0.3 mm 5 m/S 752 mmHg 85%
    19:00 +23°C° 0.3 mm 4 m/S 752 mmHg 88%
    20:00 +22°C° 0 mm 4 m/S 753 mmHg 89%
    21:00 +22°C° 0 mm 4 m/S 753 mmHg 90%
    22:00 +21°C° 0 mm 3 m/S 754 mmHg 91%
    23:00 +21°C° 0 mm 3 m/S 753 mmHg 92%
    Mehr zeigen